This is the latest recevied weather packets stored in our database for station/object K0WOI. If no packets are shown the sender has not sent any weather packets the latest 10 day(s).
| Time | Temp. | Humidity | Pressure | Rain* | Wind** | Luminosity | Snow |
|---|---|---|---|---|---|---|---|
| 1777547021 | 7.78° C | 89% | 1016.2 hPa | 0 mm | - | 0 W/m² | - |
| 1777546718 | 7.78° C | 88% | 1016 hPa | 0 mm | - | 0 W/m² | - |
| 1777546415 | 7.78° C | 88% | 1015.9 hPa | 1.27 mm | - | 0 W/m² | - |
| 1777546112 | 7.78° C | 86% | 1015.9 hPa | 1.27 mm | - | 0 W/m² | - |
| 1777545808 | 7.78° C | 84% | 1016 hPa | 0 mm | - | 0 W/m² | - |
| 1777545505 | 7.78° C | 88% | 1016.2 hPa | 0 mm | - | 0 W/m² | - |
| 1777545202 | 7.22° C | 91% | 1016.1 hPa | 0 mm | - | 0 W/m² | - |
| 1777544900 | 7.78° C | 93% | 1016.3 hPa | 0 mm | - | 0 W/m² | - |
| 1777544596 | 7.22° C | 93% | 1016.5 hPa | 0 mm | - | 0 W/m² | - |
| 1777544293 | 7.22° C | 93% | 1016.7 hPa | 0 mm | - | 0 W/m² | - |
| 1777543989 | 7.78° C | 93% | 1016.4 hPa | 0 mm | - | 0 W/m² | - |
| 1777543686 | 7.78° C | 90% | 1016.1 hPa | 0 mm | - | 0 W/m² | - |
| 1777543382 | 7.78° C | 89% | 1016.2 hPa | 0 mm | - | 0 W/m² | - |
| 1777543077 | 7.78° C | 88% | 1016.2 hPa | 0 mm | - | 0 W/m² | - |
| 1777542774 | 8.33° C | 86% | 1016.2 hPa | 0 mm | - | 0 W/m² | - |
| 1777542471 | 7.78° C | 79% | 1016.2 hPa | 0 mm | - | 0 W/m² | - |
| 1777542167 | 8.33° C | 82% | 1016 hPa | 0 mm | - | 0 W/m² | - |
| 1777541864 | 8.33° C | 79% | 1016.4 hPa | 0 mm | - | 0 W/m² | - |
| 1777541561 | 8.33° C | 75% | 1016.5 hPa | 0 mm | - | 0 W/m² | - |
| 1777541258 | 8.33° C | 78% | 1016.5 hPa | 0 mm | - | 0 W/m² | - |
| 1777540954 | 8.33° C | 78% | 1016.6 hPa | 0 mm | - | 0 W/m² | - |
| 1777540652 | 8.89° C | 83% | 1017 hPa | 0 mm | - | 0 W/m² | - |
| 1777540349 | 8.89° C | 78% | 1016.7 hPa | 0 mm | - | 0 W/m² | - |
| 1777540045 | 8.89° C | 75% | 1016.9 hPa | 0 mm | - | 0 W/m² | - |
| 1777539740 | 9.44° C | 71% | 1016.9 hPa | 0 mm | - | 0 W/m² | - |
* Rain latest hour (hover to see other rain measurements)
** Current wind speed in m/s (hover to see current wind gust speed)